"startDT [UTC]","vpos","CH4 [ppm]","stdev(CH4) [ppm]","CO2 [ppm]","stdev(CO2) [ppm]","H2O [ppm]","stdev(H2O)","p_LGR [torr]","T_LGR [C]","mt1_LGR [us]","mt2_LGR [us]","T_ECpre [C]","T_EC1 [C]","T_EC2 [C]","p_inlet [hPa]","p_in [hPa]","p_out [hPa]","T_inlet [C]","RH_inlet [%]","dwpt_inlet [C]","T_vent [C]","RH_vent [%]","dwpt_vent [C]","flow_vent [l min-1]","flow_inlet [l min-1]","dwpt_sample [C]","T_room [C]"
2012-09-03 00:00:00,0.0,1.9257,0.0014,389.52,0.27,267.5,28.8,138.06,31.01,24.65,36.52,0.94,-25.97,13.36,-47,41,-936,24.1,18.9,-1.0,24.1,1.9,-28.6,5.73,2.58,-27.1,29.3
2012-09-03 00:01:00,0.0,1.9271,0.0028,389.39,0.26,271.3,28.6,138.06,31.00,24.65,36.52,0.94,-25.97,13.61,-47,41,-936,24.1,19.2,-0.8,24.1,1.9,-28.6,5.73,2.61,-27.1,29.3
2012-09-03 00:02:00,0.0,1.9293,0.0015,389.42,0.30,279.7,27.4,138.06,31.01,24.65,36.52,0.94,-25.97,13.83,-47,41,-936,24.1,19.6,-0.5,24.1,1.9,-28.6,5.73,2.58,-27.1,29.3
2012-09-03 00:03:00,0.0,1.9281,0.0014,389.45,0.27,273.4,29.0,138.06,31.01,24.65,36.52,0.94,-25.97,14.05,-47,41,-935,24.2,19.5,-0.6,24.1,1.9,-28.6,5.73,2.57,-27.1,29.3
2012-09-03 00:04:00,0.0,1.9275,0.0015,389.51,0.33,279.4,27.0,138.06,31.01,24.65,36.51,0.94,-25.96,14.26,-47,41,-935,24.1,19.5,-0.6,24.2,1.9,-28.6,5.73,2.60,-27.1,29.3
2012-09-03 00:05:00,0.0,1.9287,0.0022,389.38,0.27,269.0,27.1,138.06,31.01,24.66,36.52,0.94,-25.95,14.46,-47,41,-935,24.1,19.5,-0.6,24.1,1.9,-28.6,5.73,2.60,-27.1,29.3
2012-09-03 00:06:00,0.0,1.9260,0.0011,389.67,0.33,267.4,26.6,138.06,31.01,24.65,36.51,0.93,-25.95,14.66,-47,41,-935,24.2,19.1,-0.9,24.1,1.9,-28.5,5.73,2.57,-27.1,29.3
2012-09-03 00:07:00,0.0,1.9261,0.0009,389.59,0.27,264.6,32.7,138.06,31.01,24.65,36.52,0.92,-25.95,14.84,-47,41,-935,24.1,19.2,-0.8,24.1,1.9,-28.6,5.73,2.57,-27.1,29.3
2012-09-03 00:08:00,0.0,1.9262,0.0009,389.68,0.29,270.5,31.8,138.06,31.01,24.65,36.52,0.92,-25.95,15.02,-47,41,-935,24.1,19.2,-0.8,24.1,1.9,-28.6,5.73,2.60,-27.1,29.3
2012-09-03 00:09:00,0.0,1.9269,0.0007,389.63,0.28,271.2,29.7,138.06,31.01,24.65,36.52,0.91,-25.95,15.19,-47,41,-935,24.1,19.4,-0.7,24.1,1.9,-28.6,5.73,2.60,-27.1,29.3
2012-09-03 00:10:00,0.0,1.9275,0.0010,389.57,0.35,274.5,32.8,138.06,31.01,24.65,36.52,0.91,-25.94,15.36,-47,41,-936,24.1,19.5,-0.6,24.1,1.9,-28.6,5.73,2.57,-27.1,29.4
2012-09-03 00:11:00,0.0,1.9297,0.0010,389.44,0.26,270.8,28.3,138.06,31.01,24.66,36.52,0.92,-25.94,15.51,-47,41,-936,24.1,19.9,-0.3,24.1,1.9,-28.6,5.73,2.58,-27.1,29.4
2012-09-03 00:12:00,0.0,1.9319,0.0015,389.31,0.30,268.8,38.0,138.06,31.01,24.65,36.52,0.90,-25.94,15.66,-47,41,-936,24.1,20.1,-0.1,24.1,1.9,-28.6,5.73,2.61,-27.1,29.4
2012-09-03 00:13:00,0.0,1.9289,0.0009,389.61,0.25,269.6,26.4,138.06,31.01,24.65,36.51,0.90,-25.94,15.80,-47,41,-935,24.1,19.9,-0.3,24.2,1.9,-28.6,5.73,2.59,-27.1,29.3
2012-09-03 00:14:00,0.0,1.9316,0.0014,389.47,0.26,277.7,36.6,138.06,31.01,24.65,36.52,0.93,-25.94,15.94,-47,41,-935,24.1,20.1,-0.2,24.2,1.9,-28.6,5.73,2.56,-27.1,29.4
2012-09-03 00:15:00,0.0,1.9300,0.0014,389.60,0.28,274.3,31.9,138.06,31.01,24.65,36.52,0.91,-25.93,16.07,-47,41,-935,24.1,19.9,-0.3,24.2,1.9,-28.5,5.73,2.58,-27.1,29.4
2012-09-03 00:16:00,0.0,1.9303,0.0011,389.65,0.23,263.3,29.8,138.06,31.02,24.66,36.52,0.92,-25.92,16.19,-47,41,-935,24.2,19.8,-0.4,24.2,1.9,-28.6,5.73,2.61,-27.1,29.4
2012-09-03 00:17:00,0.0,1.9298,0.0010,389.68,0.27,272.3,32.7,138.06,31.02,24.66,36.51,0.94,-25.92,16.31,-47,41,-935,24.2,19.9,-0.3,24.2,1.9,-28.6,5.73,2.58,-27.1,29.4
2012-09-03 00:18:00,0.0,1.9294,0.0008,389.40,0.27,265.7,30.9,138.06,31.02,24.65,36.52,0.93,-25.92,16.42,-47,41,-935,24.2,19.8,-0.3,24.2,1.9,-28.6,5.73,2.56,-27.1,29.3
2012-09-03 00:19:00,0.0,1.9295,0.0011,389.51,0.30,269.1,31.5,138.06,31.02,24.65,36.52,0.93,-25.92,16.54,-47,41,-935,24.2,19.4,-0.6,24.2,1.9,-28.5,5.73,2.59,-27.1,29.3
2012-09-03 00:20:00,0.0,1.9311,0.0012,389.55,0.27,275.9,26.1,138.06,31.02,24.65,36.52,0.93,-25.91,16.64,-47,41,-936,24.1,19.3,-0.7,24.2,1.9,-28.6,5.73,2.61,-27.1,29.3
2012-09-03 00:21:00,0.0,1.9302,0.0009,389.51,0.26,273.1,36.4,138.06,31.02,24.65,36.52,0.94,-25.91,16.75,-47,40,-935,24.2,19.3,-0.7,24.1,1.9,-28.5,5.73,2.58,-27.1,29.3
2012-09-03 00:22:00,0.0,1.9301,0.0010,389.55,0.33,263.1,35.1,138.06,31.02,24.65,36.52,0.93,-25.91,16.84,-47,41,-935,24.1,19.5,-0.6,24.1,1.9,-28.6,5.73,2.57,-27.1,29.3
2012-09-03 00:23:00,0.0,1.9292,0.0010,389.60,0.27,275.6,31.6,138.06,31.02,24.65,36.51,0.94,-25.91,16.93,-47,41,-935,24.1,19.5,-0.6,24.2,1.9,-28.5,5.73,2.60,-27.1,29.4
2012-09-03 00:24:00,0.0,1.9287,0.0009,389.78,0.32,265.8,31.0,138.06,31.02,24.65,36.51,0.94,-25.91,17.02,-47,40,-935,24.1,19.3,-0.7,24.2,1.9,-28.6,5.73,2.60,-27.1,29.3
2012-09-03 00:25:00,0.0,1.9306,0.0011,389.55,0.31,269.4,29.2,138.06,31.02,24.65,36.52,0.94,-25.91,17.10,-47,40,-935,24.1,19.5,-0.6,24.1,1.9,-28.6,5.73,2.58,-27.1,29.4
2012-09-03 00:26:00,0.0,1.9305,0.0010,389.58,0.25,267.4,36.2,138.06,31.02,24.66,36.52,0.94,-25.91,17.19,-47,41,-935,24.1,19.6,-0.5,24.1,1.9,-28.6,5.73,2.56,-27.1,29.4
2012-09-03 00:27:00,0.0,1.9297,0.0010,389.55,0.34,270.1,29.4,138.06,31.02,24.65,36.52,0.94,-25.91,17.26,-47,41,-935,24.1,19.4,-0.6,24.1,1.9,-28.6,5.73,2.60,-27.0,29.4
2012-09-03 00:28:00,0.0,1.9296,0.0010,389.62,0.29,264.5,31.2,138.06,31.02,24.65,36.52,0.93,-25.91,17.34,-47,41,-935,24.2,19.2,-0.8,24.2,1.9,-28.5,5.73,2.60,-27.1,29.4
2012-09-03 00:29:00,0.0,1.9308,0.0008,389.49,0.29,274.3,33.2,138.06,31.02,24.65,36.52,0.92,-25.90,17.41,-47,41,-935,24.2,19.5,-0.5,24.1,1.9,-28.6,5.73,2.57,-27.0,29.4
2012-09-03 00:30:00,0.0,1.9314,0.0011,389.32,0.30,274.2,30.3,138.06,31.02,24.66,36.52,0.93,-25.90,17.47,-47,41,-935,24.2,19.5,-0.5,24.2,1.9,-28.5,5.73,2.58,-27.1,29.4
2012-09-03 00:31:00,0.0,1.9313,0.0014,388.94,0.34,272.1,25.8,138.06,31.02,24.65,36.51,0.90,-25.90,17.54,-47,41,-935,24.2,19.7,-0.4,24.2,1.9,-28.6,5.73,2.61,-27.1,29.4
2012-09-03 00:32:00,0.0,1.9259,0.0012,389.12,0.29,265.8,37.0,138.06,31.02,24.65,36.52,0.90,-25.90,17.60,-48,41,-935,24.2,19.1,-0.8,24.2,1.9,-28.5,5.73,2.59,-27.1,29.4
2012-09-03 00:33:00,0.0,1.9236,0.0010,389.14,0.31,262.9,25.5,138.06,31.02,24.65,36.52,0.91,-25.90,17.66,-47,41,-935,24.2,18.5,-1.3,24.2,1.9,-28.6,5.73,2.56,-27.1,29.4
2012-09-03 00:34:00,0.0,1.9243,0.0009,389.05,0.29,277.8,36.4,138.06,31.02,24.65,36.52,0.91,-25.89,17.72,-47,41,-935,24.2,18.3,-1.4,24.2,1.9,-28.6,5.73,2.59,-27.1,29.4
2012-09-03 00:35:00,0.0,1.9239,0.0007,388.93,0.30,262.5,29.5,138.06,31.02,24.66,36.51,0.90,-25.89,17.77,-47,41,-935,24.2,18.2,-1.5,24.2,1.9,-28.6,5.73,2.60,-27.1,29.4
2012-09-03 00:36:00,0.0,1.9255,0.0013,388.77,0.29,270.1,27.0,138.06,31.01,24.65,36.51,0.92,-25.90,17.82,-47,41,-935,24.2,18.6,-1.2,24.2,1.9,-28.7,5.73,2.58,-27.1,29.4
2012-09-03 00:37:00,0.0,1.9250,0.0011,388.79,0.28,265.9,29.9,138.06,31.01,24.65,36.52,0.91,-25.90,17.87,-47,41,-935,24.2,18.6,-1.2,24.2,1.9,-28.6,5.73,2.57,-27.1,29.4
2012-09-03 00:38:00,0.0,1.9228,0.0008,388.52,0.29,263.3,32.5,138.06,31.02,24.66,36.52,0.93,-25.89,17.92,-47,41,-935,24.2,18.8,-1.0,24.2,1.9,-28.5,5.73,2.59,-27.1,29.4
2012-09-03 00:39:00,0.0,1.9241,0.0011,388.84,0.33,272.0,29.3,138.06,31.01,24.66,36.52,0.93,-25.90,17.97,-48,41,-935,24.2,18.1,-1.5,24.2,1.9,-28.6,5.73,2.60,-27.1,29.4
2012-09-03 00:40:00,0.0,1.9246,0.0009,388.94,0.26,269.9,31.1,138.06,31.01,24.65,36.52,0.91,-25.90,18.01,-47,40,-935,24.2,18.0,-1.6,24.2,1.9,-28.5,5.73,2.58,-27.1,29.4
2012-09-03 00:41:00,0.0,1.9242,0.0010,388.98,0.27,268.0,27.0,138.06,31.01,24.65,36.51,0.92,-25.89,18.06,-47,41,-935,24.2,18.2,-1.5,24.2,1.9,-28.6,5.73,2.56,-27.1,29.4
2012-09-03 00:42:00,0.0,1.9228,0.0008,389.10,0.29,258.5,28.8,138.06,31.01,24.66,36.51,0.93,-25.90,18.10,-48,41,-935,24.2,17.9,-1.7,24.2,1.9,-28.6,5.73,2.59,-27.1,29.4
2012-09-03 00:43:00,0.0,1.9242,0.0009,388.71,0.29,258.5,32.9,138.06,31.01,24.65,36.52,0.93,-25.90,18.14,-47,40,-935,24.2,18.1,-1.6,24.2,1.9,-28.5,5.73,2.60,-27.1,29.4
2012-09-03 00:44:00,0.0,1.9231,0.0008,388.65,0.28,268.7,35.5,138.06,31.02,24.66,36.51,0.93,-25.89,18.17,-47,41,-935,24.2,18.2,-1.5,24.2,1.9,-28.6,5.73,2.57,-27.1,29.4
2012-09-03 00:45:00,0.0,1.9211,0.0027,388.35,0.30,264.2,32.6,138.06,31.02,24.65,36.52,0.95,-25.89,18.21,-48,41,-935,24.2,17.3,-2.1,24.2,1.9,-28.7,5.73,2.57,-27.1,29.5
2012-09-03 00:46:00,0.0,1.9176,0.0010,388.44,0.29,271.0,30.8,138.06,31.02,24.66,36.51,0.94,-25.90,18.24,-47,40,-935,24.2,16.7,-2.6,24.2,1.9,-28.7,5.73,2.59,-27.1,29.5
2012-09-03 00:47:00,0.0,1.9175,0.0009,388.47,0.36,273.5,24.3,138.06,31.03,24.65,36.51,0.94,-25.90,18.27,-47,41,-935,24.2,16.4,-2.9,24.2,1.9,-28.8,5.73,2.60,-27.1,29.5
2012-09-03 00:48:00,0.0,1.9185,0.0010,388.41,0.32,269.6,31.6,138.06,31.03,24.66,36.52,0.94,-25.90,18.30,-47,40,-935,24.3,16.5,-2.8,24.2,1.9,-28.9,5.73,2.57,-27.1,29.5
2012-09-03 00:49:00,0.0,1.9177,0.0008,388.44,0.29,268.8,33.4,138.06,31.03,24.65,36.52,0.94,-25.91,18.33,-47,40,-935,24.2,16.5,-2.8,24.2,1.9,-28.9,5.73,2.56,-27.1,29.5
2012-09-03 00:50:00,0.0,1.9192,0.0009,388.33,0.27,268.6,31.9,138.06,31.03,24.65,36.51,0.94,-25.91,18.36,-47,40,-935,24.3,17.0,-2.4,24.2,1.9,-28.9,5.73,2.60,-27.1,29.4
2012-09-03 00:51:00,0.0,1.9190,0.0009,388.38,0.33,265.8,29.1,138.06,31.02,24.65,36.52,0.95,-25.91,18.39,-48,41,-935,24.3,16.5,-2.7,24.2,1.8,-29.0,5.73,2.59,-27.1,29.4
2012-09-03 00:52:00,0.0,1.9195,0.0009,388.51,0.28,262.5,28.7,138.06,31.02,24.65,36.52,0.93,-25.91,18.42,-48,40,-934,24.3,16.6,-2.7,24.2,1.9,-28.9,5.73,2.56,-27.2,29.5
2012-09-03 00:53:00,0.0,1.9212,0.0010,388.50,0.27,263.7,29.7,138.06,31.02,24.65,36.52,0.92,-25.92,18.44,-47,40,-935,24.3,16.8,-2.5,24.2,1.8,-29.0,5.73,2.57,-27.2,29.4
2012-09-03 00:54:00,0.0,1.9205,0.0012,388.62,0.31,264.7,26.9,138.06,31.03,24.65,36.52,0.93,-25.92,18.46,-48,40,-935,24.3,16.6,-2.6,24.3,1.8,-29.0,5.73,2.60,-27.2,29.4
2012-09-03 00:55:00,0.0,1.9213,0.0008,388.72,0.30,256.4,26.9,138.06,31.03,24.65,36.52,0.93,-25.92,18.48,-48,40,-935,24.3,16.9,-2.4,24.3,1.8,-29.0,5.73,2.59,-27.2,29.4
2012-09-03 00:56:00,0.0,1.9215,0.0010,388.66,0.25,257.5,32.0,138.06,31.03,24.65,36.52,0.93,-25.92,18.51,-48,40,-935,24.3,16.9,-2.4,24.3,1.8,-29.0,5.73,2.56,-27.2,29.4
2012-09-03 00:57:00,0.0,1.9241,0.0010,388.51,0.28,261.4,33.2,138.06,31.03,24.65,36.52,0.90,-25.92,18.53,-48,40,-935,24.3,17.5,-1.9,24.3,1.8,-29.0,5.73,2.57,-27.2,29.4
2012-09-03 00:58:00,0.0,1.9219,0.0011,388.71,0.31,259.8,28.1,138.06,31.03,24.65,36.51,0.91,-25.92,18.55,-48,40,-935,24.3,16.8,-2.5,24.3,1.8,-29.1,5.73,2.60,-27.2,29.4
2012-09-03 00:59:00,0.0,1.9204,0.0013,388.59,0.31,267.7,34.3,138.06,31.03,24.65,36.51,0.93,-25.92,18.57,-48,40,-935,24.3,16.3,-2.8,24.3,1.8,-29.1,5.73,2.59,-27.2,29.4
2012-09-03 01:00:00,0.0,1.9203,0.0009,388.66,0.32,264.8,29.4,138.06,31.03,24.65,36.52,0.93,-25.92,18.58,-48,40,-935,24.3,16.4,-2.8,24.3,1.8,-29.1,5.73,2.56,-27.2,29.4
2012-09-03 01:01:00,0.0,1.9205,0.0014,388.40,0.29,270.4,28.2,138.06,31.03,24.65,36.52,0.92,-25.92,18.61,-48,40,-935,24.3,16.5,-2.7,24.3,1.8,-29.1,5.73,2.58,-27.2,29.5
2012-09-03 01:02:00,0.0,1.9239,0.0015,388.33,0.23,265.0,34.7,138.06,31.03,24.65,36.52,0.91,-25.93,18.62,-48,40,-935,24.3,17.0,-2.3,24.3,1.8,-29.1,5.73,2.60,-27.2,29.5
2012-09-03 01:03:00,0.0,1.9223,0.0009,388.47,0.31,254.5,32.7,138.06,31.02,24.65,36.51,0.93,-25.93,18.63,-48,40,-935,24.3,17.2,-2.2,24.3,1.8,-29.1,5.73,2.58,-27.2,29.4
2012-09-03 01:04:00,0.0,1.9199,0.0014,388.57,0.24,260.6,31.4,138.07,31.02,24.65,36.52,0.92,-25.92,18.65,-48,40,-935,24.3,16.5,-2.7,24.3,1.8,-29.1,5.73,2.56,-27.2,29.4
2012-09-03 01:05:00,0.0,1.9200,0.0011,388.51,0.30,262.8,27.3,138.06,31.02,24.65,36.52,0.94,-25.93,18.67,-48,40,-935,24.3,16.6,-2.6,24.3,1.8,-29.1,5.73,2.58,-27.2,29.4
2012-09-03 01:06:00,0.0,1.9202,0.0009,388.38,0.30,255.4,35.1,138.07,31.02,24.65,36.52,0.92,-25.93,18.68,-48,40,-935,24.3,17.0,-2.3,24.3,1.8,-29.2,5.73,2.60,-27.2,29.4
2012-09-03 01:07:00,0.0,1.9202,0.0010,388.50,0.26,262.3,28.5,138.06,31.02,24.65,36.52,0.93,-25.93,18.69,-48,40,-935,24.3,16.8,-2.5,24.3,1.8,-29.1,5.73,2.58,-27.2,29.4
2012-09-03 01:08:00,0.0,1.9217,0.0012,388.43,0.27,261.1,26.5,138.06,31.02,24.65,36.52,1.03,-25.93,18.52,-48,40,-935,24.3,16.9,-2.3,24.3,1.8,-29.1,5.73,2.56,-27.2,29.4
2012-09-03 01:09:00,0.0,1.9210,0.0015,388.14,0.30,263.1,33.1,138.06,31.03,24.65,36.52,1.14,-25.92,16.92,-48,40,-935,24.3,16.6,-2.6,24.3,1.8,-29.1,5.73,2.59,-27.2,29.4
2012-09-03 01:10:00,0.0,1.9182,0.0009,388.13,0.33,261.3,29.7,138.06,31.03,24.65,36.52,0.99,-25.92,14.63,-48,40,-934,24.3,16.0,-3.1,24.3,1.8,-29.1,5.73,2.60,-27.2,29.4
2012-09-03 01:11:00,0.0,1.9169,0.0009,388.20,0.29,266.0,28.4,138.06,31.03,24.65,36.52,1.04,-25.94,12.25,-48,40,-935,24.3,15.4,-3.6,24.3,1.8,-29.1,5.73,2.57,-27.3,29.4
2012-09-03 01:12:00,0.0,1.9173,0.0009,388.09,0.30,258.4,26.9,138.06,31.03,24.65,36.52,1.08,-25.95,9.91,-48,40,-935,24.3,15.4,-3.6,24.3,1.8,-29.1,5.73,2.56,-27.3,29.5
2012-09-03 01:13:00,0.0,1.9191,0.0010,387.96,0.27,261.5,28.7,138.07,31.03,24.65,36.52,0.98,-25.96,7.65,-48,40,-935,24.4,15.5,-3.5,24.3,1.8,-29.1,5.73,2.60,-27.3,29.5
2012-09-03 01:14:00,0.0,1.9193,0.0010,387.90,0.31,258.0,32.7,138.07,31.03,24.65,36.52,1.04,-25.96,5.50,-48,40,-935,24.3,15.7,-3.3,24.3,1.8,-29.1,5.73,2.59,-27.3,29.5
2012-09-03 01:15:00,0.0,1.9179,0.0014,388.02,0.24,263.6,30.2,138.06,31.03,24.65,36.52,1.09,-25.97,3.44,-48,40,-935,24.4,15.4,-3.6,24.3,1.8,-29.1,5.73,2.56,-27.3,29.6
2012-09-03 01:16:00,0.0,1.9181,0.0014,387.97,0.31,260.8,28.3,138.07,31.03,24.65,36.52,0.98,-25.98,1.50,-48,40,-935,24.4,15.3,-3.6,24.3,1.8,-29.1,5.73,2.59,-27.3,29.6
2012-09-03 01:17:00,0.0,1.9207,0.0012,387.75,0.30,264.0,32.7,138.07,31.03,24.65,36.52,1.02,-25.99,-0.34,-48,40,-935,24.4,16.0,-3.0,24.3,1.8,-29.1,5.73,2.60,-27.2,29.6
2012-09-03 01:18:00,0.0,1.9213,0.0018,387.93,0.34,269.8,30.7,138.07,31.03,24.65,36.52,1.09,-25.99,-2.08,-48,40,-935,24.4,16.0,-3.1,24.3,1.8,-29.0,5.73,2.56,-27.3,29.6
2012-09-03 01:19:00,0.0,1.9193,0.0012,388.18,0.25,256.6,27.5,138.07,31.03,24.65,36.52,0.99,-26.00,-3.66,-48,40,-935,24.4,15.6,-3.4,24.3,1.8,-29.1,5.73,2.59,-27.3,29.6
2012-09-03 01:20:00,0.0,1.9220,0.0011,388.31,0.28,259.4,33.1,138.07,31.03,24.65,36.52,0.99,-26.01,-4.85,-48,40,-935,24.4,16.3,-2.8,24.3,1.8,-29.1,5.73,2.61,-27.3,29.7
2012-09-03 01:21:00,0.0,1.9244,0.0014,388.14,0.26,264.4,29.0,138.07,31.02,24.65,36.51,1.07,-26.01,-5.98,-48,40,-934,24.4,16.6,-2.5,24.3,1.8,-29.1,5.73,2.56,-27.3,29.6
2012-09-03 01:22:00,0.0,1.9220,0.0010,388.02,0.30,259.8,32.9,138.07,31.03,24.65,36.51,1.05,-26.01,-7.23,-48,40,-934,24.5,16.2,-2.8,24.4,1.8,-29.2,5.73,2.59,-27.3,29.6
2012-09-03 01:23:00,0.0,1.9211,0.0008,387.90,0.26,256.0,27.1,138.07,31.03,24.65,36.51,0.97,-26.02,-8.52,-48,40,-935,24.5,16.0,-3.0,24.3,1.8,-29.3,5.73,2.60,-27.3,29.6
2012-09-03 01:24:00,0.0,1.9195,0.0009,388.08,0.23,262.3,32.1,138.07,31.03,24.65,36.51,1.02,-26.03,-9.72,-48,40,-935,24.5,16.0,-3.0,24.3,1.8,-29.2,5.73,2.56,-27.3,29.6
2012-09-03 01:25:00,0.0,1.9208,0.0012,388.07,0.26,255.4,26.1,138.07,31.02,24.66,36.51,1.07,-26.04,-10.78,-48,40,-935,24.5,15.8,-3.1,24.3,1.8,-29.2,5.73,2.59,-27.3,29.6
2012-09-03 01:26:00,0.0,1.9207,0.0014,388.13,0.24,260.3,30.3,138.07,31.02,24.65,36.52,0.99,-26.05,-11.91,-48,40,-935,24.5,15.7,-3.2,24.4,1.8,-29.2,5.73,2.61,-27.3,29.6
2012-09-03 01:27:00,0.0,1.9215,0.0009,388.09,0.26,261.0,25.2,138.07,31.02,24.65,36.52,0.98,-26.06,-12.97,-48,40,-935,24.5,15.8,-3.1,24.4,1.8,-29.2,5.73,2.56,-27.3,29.6
2012-09-03 01:28:00,0.0,1.9215,0.0014,388.12,0.34,257.1,28.7,138.07,31.02,24.65,36.52,1.04,-26.07,-13.96,-48,40,-935,24.5,16.1,-2.9,24.4,1.8,-29.2,5.73,2.59,-27.3,29.5
2012-09-03 01:29:00,0.0,1.9198,0.0010,388.23,0.26,256.2,32.2,138.07,31.02,24.65,36.52,1.07,-26.08,-14.90,-48,40,-935,24.5,15.7,-3.2,24.4,1.8,-29.2,5.73,2.60,-27.3,29.5
2012-09-03 01:30:00,0.0,1.9200,0.0016,388.21,0.28,254.9,32.9,138.07,31.02,24.65,36.52,0.96,-26.09,-15.78,-48,40,-934,24.6,15.7,-3.2,24.4,1.8,-29.2,5.73,2.55,-27.4,29.6
2012-09-03 01:31:00,0.0,1.9227,0.0017,388.08,0.25,255.8,29.9,138.07,31.02,24.66,36.51,1.00,-26.11,-16.60,-48,40,-935,24.6,16.0,-2.9,24.4,1.8,-29.2,5.73,2.60,-27.4,29.6
2012-09-03 01:32:00,0.0,1.9161,0.0012,387.97,0.24,249.0,27.1,138.07,31.02,24.65,36.52,1.06,-26.12,-17.29,-48,40,-935,24.6,14.6,-4.1,24.4,1.8,-29.2,5.73,2.59,-27.4,29.6
2012-09-03 01:33:00,0.0,1.9153,0.0009,387.98,0.27,250.5,31.2,138.07,31.02,24.66,36.52,1.03,-26.13,-18.02,-48,40,-935,24.6,14.5,-4.2,24.5,1.8,-29.3,5.73,2.56,-27.4,29.6
2012-09-03 01:34:00,0.0,1.9156,0.0009,387.93,0.31,250.2,26.7,138.07,31.02,24.65,36.51,0.96,-26.15,-18.72,-48,40,-935,24.7,14.7,-3.9,24.5,1.7,-29.4,5.73,2.60,-27.4,29.7
2012-09-03 01:35:00,0.0,1.9154,0.0010,388.00,0.33,257.8,35.4,138.07,31.02,24.66,36.51,1.01,-26.17,-19.39,-48,40,-935,24.7,14.6,-4.0,24.5,1.7,-29.3,5.73,2.58,-27.4,29.6
2012-09-03 01:36:00,0.0,1.9167,0.0010,387.78,0.25,252.1,31.7,138.07,31.02,24.65,36.52,1.07,-26.17,-20.01,-48,40,-935,24.7,15.1,-3.6,24.6,1.8,-29.3,5.73,2.56,-27.4,29.6
2012-09-03 01:37:00,0.0,1.9166,0.0011,387.86,0.28,250.4,29.8,138.07,31.01,24.65,36.52,1.00,-26.19,-20.59,-48,40,-935,24.7,14.8,-3.8,24.6,1.8,-29.2,5.73,2.61,-27.4,29.6
2012-09-03 01:38:00,0.0,1.9157,0.0009,387.89,0.32,257.0,28.6,138.07,31.01,24.65,36.51,0.96,-26.21,-21.14,-48,40,-935,24.7,14.9,-3.7,24.6,1.8,-29.3,5.73,2.57,-27.4,29.6
2012-09-03 01:39:00,0.0,1.9170,0.0009,387.63,0.33,246.0,29.5,138.07,31.01,24.65,36.52,1.01,-26.21,-21.65,-49,41,-935,24.7,15.6,-3.1,24.6,1.8,-29.2,5.73,2.57,-27.4,29.6
2012-09-03 01:40:00,0.0,1.9171,0.0011,387.79,0.26,251.4,37.2,138.07,31.01,24.65,36.52,1.06,-26.23,-22.13,-48,40,-935,24.7,15.0,-3.7,24.6,1.7,-29.3,5.73,2.61,-27.5,29.6
2012-09-03 01:41:00,0.0,1.9154,0.0009,388.04,0.27,248.4,30.9,138.07,31.01,24.65,36.52,1.02,-26.24,-22.58,-49,40,-936,24.8,14.3,-4.2,24.6,1.8,-29.2,5.73,2.56,-27.5,29.6
2012-09-03 01:42:00,0.0,1.9153,0.0008,388.05,0.29,249.4,28.5,138.07,31.01,24.65,36.51,0.96,-26.25,-23.00,-48,40,-935,24.8,14.2,-4.3,24.6,1.7,-29.4,5.73,2.59,-27.5,29.6
2012-09-03 01:43:00,0.0,1.9161,0.0011,387.93,0.30,246.7,34.9,138.07,31.01,24.65,36.52,0.99,-26.26,-23.40,-49,40,-935,24.8,14.5,-4.1,24.6,1.7,-29.5,5.73,2.60,-27.5,29.6
2012-09-03 01:44:00,0.0,1.9171,0.0011,387.84,0.26,245.3,29.5,138.07,31.01,24.65,36.52,1.06,-26.28,-23.78,-49,40,-935,24.8,14.9,-3.7,24.6,1.7,-29.5,5.73,2.55,-27.5,29.6
2012-09-03 01:45:00,0.0,1.9166,0.0010,388.01,0.27,250.7,28.5,138.07,31.01,24.65,36.52,1.03,-26.29,-24.14,-48,40,-935,24.8,14.7,-3.8,24.6,1.7,-29.4,5.73,2.60,-27.6,29.6
2012-09-03 01:46:00,0.0,1.9167,0.0010,388.03,0.26,244.3,29.2,138.07,31.01,24.65,36.52,0.96,-26.30,-24.48,-49,40,-935,24.8,14.7,-3.8,24.6,1.7,-29.4,5.73,2.59,-27.6,29.6
2012-09-03 01:47:00,0.0,1.9163,0.0013,387.94,0.22,239.1,28.9,138.07,31.01,24.65,36.52,1.00,-26.32,-24.79,-49,40,-936,24.9,14.5,-4.0,24.7,1.7,-29.4,5.73,2.56,-27.6,29.7
2012-09-03 01:48:00,0.0,1.9159,0.0009,388.12,0.25,243.4,26.1,138.07,31.01,24.65,36.51,1.05,-26.33,-25.10,-49,40,-936,24.9,14.5,-4.0,24.7,1.7,-29.4,5.73,2.61,-27.6,29.7
2012-09-03 01:49:00,0.0,1.9159,0.0010,387.99,0.26,237.2,29.7,138.07,31.01,24.65,36.52,1.04,-26.34,-25.38,-49,40,-935,24.9,14.3,-4.2,24.7,1.7,-29.4,5.73,2.57,-27.6,29.7
2012-09-03 01:50:00,0.0,1.9162,0.0009,388.01,0.30,241.2,28.3,138.07,31.01,24.65,36.52,0.96,-26.35,-25.65,-49,40,-935,24.9,14.4,-4.0,24.7,1.7,-29.4,5.73,2.57,-27.6,29.6
2012-09-03 01:51:00,0.0,1.9161,0.0007,387.97,0.29,246.8,31.8,138.07,31.01,24.65,36.52,0.96,-26.36,-25.90,-49,40,-935,24.9,14.6,-3.9,24.7,1.7,-29.5,5.73,2.60,-27.6,29.6
2012-09-03 01:52:00,0.0,1.9164,0.0008,387.98,0.23,242.7,31.9,138.07,31.01,24.65,36.52,1.01,-26.37,-26.14,-49,40,-936,24.9,14.5,-3.9,24.7,1.7,-29.5,5.73,2.56,-27.6,29.6
2012-09-03 01:53:00,0.0,1.9170,0.0008,387.89,0.27,245.2,33.3,138.07,31.01,24.65,36.52,1.08,-26.38,-26.36,-49,41,-935,24.9,14.8,-3.7,24.7,1.7,-29.5,5.73,2.60,-27.7,29.6
2012-09-03 01:54:00,0.0,1.9163,0.0009,388.06,0.34,240.4,29.5,138.07,31.01,24.66,36.52,0.95,-26.40,-26.20,-49,40,-935,25.0,14.5,-3.9,24.7,1.7,-29.5,5.73,2.59,-27.7,29.6
2012-09-03 01:55:00,0.0,1.9165,0.0009,388.17,0.27,237.9,32.2,138.07,31.01,24.65,36.51,0.99,-26.40,-26.16,-49,41,-935,25.0,14.4,-4.0,24.7,1.7,-29.5,5.73,2.56,-27.7,29.6
2012-09-03 01:56:00,0.0,1.9160,0.0010,388.06,0.27,243.3,28.2,138.07,31.01,24.66,36.51,0.96,-26.41,-26.32,-49,40,-935,24.9,14.3,-4.1,24.7,1.7,-29.5,5.73,2.61,-27.7,29.6
2012-09-03 01:57:00,0.0,1.9169,0.0008,388.16,0.27,249.8,30.2,138.07,31.01,24.65,36.51,0.91,-26.42,-26.35,-49,40,-936,24.9,14.5,-4.0,24.7,1.7,-29.6,5.73,2.57,-27.7,29.6
2012-09-03 01:58:00,0.0,1.9173,0.0009,387.99,0.23,237.6,33.5,138.07,31.01,24.65,36.51,1.02,-26.43,-26.16,-49,40,-936,24.9,14.6,-3.8,24.7,1.7,-29.6,5.73,2.57,-27.7,29.6
2012-09-03 01:59:00,0.0,1.9181,0.0008,387.88,0.29,238.5,23.1,138.07,31.01,24.65,36.52,1.04,-26.44,-26.29,-49,40,-935,24.9,14.8,-3.7,24.7,1.7,-29.5,5.73,2.61,-27.7,29.5
2012-09-03 02:00:00,0.0,1.9182,0.0010,387.91,0.21,236.1,27.5,138.07,31.01,24.65,36.51,0.99,-26.44,-26.44,-49,40,-935,24.9,15.4,-3.1,24.7,1.7,-29.5,5.73,2.56,-27.7,29.6
2012-09-03 02:01:00,0.0,1.9190,0.0012,387.79,0.24,237.8,28.5,138.07,31.01,24.66,36.52,0.95,-26.45,-26.19,-49,40,-935,24.9,15.4,-3.2,24.7,1.7,-29.6,5.73,2.60,-27.7,29.6
2012-09-03 02:02:00,0.0,1.9169,0.0010,387.96,0.24,229.3,23.2,138.07,31.01,24.66,36.52,0.97,-26.46,-26.26,-49,40,-935,24.9,14.7,-3.7,24.7,1.7,-29.7,5.73,2.59,-27.7,29.5
2012-09-03 02:03:00,0.0,1.9166,0.0010,388.09,0.31,244.0,31.1,138.07,31.01,24.65,36.52,1.02,-26.46,-26.43,-49,40,-936,24.9,14.4,-4.0,24.7,1.7,-29.7,5.73,2.56,-27.8,29.6
2012-09-03 02:04:00,0.0,1.9173,0.0009,388.10,0.31,232.8,30.1,138.07,31.02,24.65,36.52,0.95,-26.47,-26.30,-49,40,-935,25.0,14.4,-4.0,24.7,1.7,-29.6,5.73,2.61,-27.8,29.6
2012-09-03 02:05:00,0.0,1.9168,0.0008,388.06,0.25,232.6,27.6,138.07,31.02,24.65,36.52,1.05,-26.48,-26.24,-49,40,-935,25.0,14.5,-4.0,24.7,1.7,-29.6,5.73,2.58,-27.8,29.6
2012-09-03 02:06:00,0.0,1.9176,0.0009,388.02,0.31,231.3,31.0,138.07,31.01,24.65,36.51,0.97,-26.49,-26.40,-49,40,-935,24.9,14.7,-3.8,24.7,1.7,-29.7,5.73,2.57,-27.8,29.6
2012-09-03 02:07:00,0.0,1.9169,0.0010,388.13,0.33,230.4,33.4,138.07,31.01,24.65,36.52,0.87,-26.37,-26.50,-49,40,-935,24.9,14.3,-4.2,24.7,1.7,-29.6,5.73,2.61,-27.8,29.6
2012-09-03 02:08:00,0.0,1.9163,0.0010,388.09,0.29,216.1,29.3,138.07,31.01,24.66,36.51,0.97,-25.12,-26.54,-49,40,-935,25.0,14.5,-3.9,24.7,1.7,-29.7,5.73,2.56,-27.9,29.6
2012-09-03 02:09:00,0.0,1.9170,0.0009,388.02,0.25,234.9,31.4,138.07,31.01,24.65,36.52,0.93,-23.23,-26.65,-49,40,-935,25.0,14.6,-3.8,24.8,1.6,-29.9,5.73,2.58,-27.7,29.6
2012-09-03 02:10:00,0.0,1.9174,0.0008,388.06,0.29,256.9,29.9,138.07,31.01,24.65,36.51,0.86,-21.29,-26.74,-49,40,-935,25.0,14.5,-4.0,24.7,1.7,-29.5,5.73,2.60,-27.4,29.6
2012-09-03 02:11:00,0.0,1.9166,0.0010,388.06,0.22,273.2,30.3,138.06,31.01,24.66,36.52,0.84,-19.42,-26.79,-49,40,-935,25.0,14.4,-4.0,24.7,1.8,-29.1,5.73,2.56,-27.1,29.6
2012-09-03 02:12:00,0.0,1.9167,0.0009,387.96,0.27,287.3,34.6,138.07,31.01,24.65,36.52,0.87,-17.62,-26.83,-49,40,-935,24.9,14.4,-4.1,24.7,1.8,-28.6,5.73,2.60,-26.9,29.6
2012-09-03 02:13:00,0.0,1.9186,0.0013,387.65,0.27,297.3,36.1,138.06,31.01,24.65,36.53,0.89,-15.91,-26.85,-49,40,-935,24.9,15.3,-3.3,24.7,1.9,-28.4,5.73,2.60,-26.9,29.6
2012-09-03 02:14:00,0.0,1.9184,0.0012,387.95,0.28,294.4,32.7,138.07,31.01,24.65,36.51,0.92,-14.30,-26.87,-49,40,-935,24.9,14.6,-3.9,24.7,1.9,-28.3,5.73,2.56,-26.8,29.6
2012-09-03 02:15:00,0.0,1.9181,0.0013,388.03,0.27,295.6,33.5,138.07,31.01,24.66,36.52,0.92,-12.77,-26.88,-49,40,-935,24.9,14.5,-3.9,24.7,1.9,-28.4,5.73,2.60,-26.8,29.6
2012-09-03 02:16:00,0.0,1.9215,0.0009,387.90,0.28,301.3,30.9,138.06,31.01,24.65,36.52,0.94,-11.32,-26.88,-49,40,-935,24.9,14.8,-3.7,24.7,1.9,-28.4,5.73,2.59,-26.8,29.6
2012-09-03 02:17:00,0.0,1.9229,0.0027,387.89,0.33,293.7,30.8,138.06,31.01,24.65,36.52,0.94,-9.94,-26.89,-49,40,-935,24.9,14.9,-3.5,24.7,1.9,-28.4,5.73,2.56,-26.9,29.7
2012-09-03 02:18:00,0.0,1.9179,0.0009,388.06,0.26,287.2,28.7,138.06,31.01,24.65,36.52,0.91,-8.64,-26.89,-49,40,-935,24.9,14.3,-4.2,24.7,1.9,-28.4,5.73,2.59,-26.9,29.7
2012-09-03 02:19:00,0.0,1.9175,0.0009,388.09,0.28,283.3,28.5,138.06,31.01,24.65,36.52,0.87,-7.39,-26.88,-49,40,-935,24.9,14.2,-4.2,24.7,1.9,-28.5,5.73,2.59,-26.9,29.7